Regional Weather Roundup
Issued by NWS

Home | Current Version | Previous Version | Graphics & Text | Print | Product List | Glossary On
Versions: 1 2 3 4 5 6 7 8 9 10 11 12 13 14 15 16 17 18 19 20 21 22 23 24 25 26 27 28 29 30 31 32 33 34 35 36 37 38 39 40 41 42 43 44 45 46 47 48 49 50
000
ASUS43 KMKX 050511
RWRWI

WISCONSIN REGIONAL WEATHER ROUNDUP
NATIONAL WEATHER SERVICE MILWAUKEE/SULLIVAN WI
1200 AM CDT WED AUG 05 2015

NOTE: "FAIR" INDICATES FEW OR NO CLOUDS BELOW 12,000 FEET WITH NO
SIGNIFICANT WEATHER AND/OR OBSTRUCTIONS TO VISIBILITY.

WIZ001-002-006>008-014>016-023>028-050600-
NORTHWEST WISCONSIN

CITY           SKY/WX    TMP DP  RH WIND       PRES   REMARKS
SUPERIOR ARPT  PTCLDY    55  50  83 E3        30.07S
ASHLAND        CLEAR     50  50 100 CALM      30.08R
HAYWARD        PTCLDY    56  53  90 CALM      30.08R
SIREN          CLEAR     55  52  90 CALM      30.06R
CUMBERLAND     CLEAR     57  54  88 E7        30.06S
RICE LAKE      CLEAR     56  53  88 NE5       30.06S
CHETEK         CLEAR     62  56  81 NE5       30.05S
LADYSMITH      CLEAR     57  53  86 NE5       30.08S
EAU CLAIRE     CLEAR     60  56  86 N5        30.03R
MENOMONIE      CLEAR     62  59  89 CALM      30.04R
NEW RICHMOND   CLEAR     58  56  93 CALM      30.04S
OSCEOLA        CLEAR     58  58 100 CALM      30.06S
$$

WIZ003>005-009-010-017-018-050600-
NORTH CENTRAL WISCONSIN

CITY           SKY/WX    TMP DP  RH WIND       PRES   REMARKS
MANITOWISH WTR CLEAR     47  47 100 CALM      30.09R FOG
ARBOR VITAE    CLEAR     52  49  91 CALM      30.08S
WOODRUFF       CLEAR     52  49  91 CALM      30.08S
RHINELANDER    MOCLDY    56  51  84 NE3       30.09R
EAGLE RIVER      N/A     47  47 100 CALM      30.08R FOG
LAND O LAKES   CLEAR     46  45  97 CALM      30.10R
PHILLIPS       CLOUDY    58  52  79 NE3       30.08R
TOMAHAWK       CLOUDY    57  54  90 CALM      30.08R
MEDFORD        CLEAR     55  52  92 CALM      30.07R
MERRILL        NOT AVBL
$$

WIZ029-030-035-036-043>047-050600-
CENTRAL WISCONSIN

CITY           SKY/WX    TMP DP  RH WIND       PRES   REMARKS
WAUSAU         CLEAR     61  53  75 N5        30.04R
MOSINEE        CLEAR     61  54  77 NE3       30.06R
MARSHFIELD     CLEAR     59  53  80 CALM      30.05R
STEVENS POINT  CLEAR     54  52  90 CALM      30.05S
WAUPACA        CLEAR     59  57  94 CALM      30.04R
WAUTOMA        PTCLDY    57  53  86 CALM      30.05R
WISC RAPIDS    CLEAR     57  52  83 CALM      30.05R
CAMP DOUGLAS   CLEAR     54  54 100 CALM      30.03S
$$

WIZ011>013-019>022-031-037>040-048>050-050600-
NORTHEAST WISCONSIN

CITY           SKY/WX    TMP DP  RH WIND       PRES   REMARKS
ANTIGO         CLOUDY    58  55  90 NE3       30.08R
SHAWANO        CLOUDY    63  58  82 CALM      30.05R
OCONTO         CLOUDY    62  58  87 NE3       30.04R
STURGEON BAY   CLOUDY    61  55  82 E5        30.07R
GREEN BAY      CLEAR     60  56  86 NE3       30.04R
MANITOWOC      CLEAR     60  58  92 MISG      30.04R
APPLETON       CLEAR     59  52  77 NE6       30.04R
CLINTONVILLE   CLEAR     57  54  88 CALM      30.04R
OSHKOSH        CLEAR     57  53  86 CALM      30.03R
$$

WIZ032>034-041-042-053>061-050600-
SOUTHWEST WISCONSIN

CITY           SKY/WX    TMP DP  RH WIND       PRES   REMARKS
LA CROSSE      CLEAR     65  59  81 SE5       30.02S
SPARTA         CLEAR     54  52  94 CALM      30.05R
VIROQUA        CLEAR     61  56  83 S5        30.05S
BOSCOBEL       CLEAR     58  56  93 CALM      30.04S
PRAIRIE DU CHI CLEAR     60  56  88 CALM      30.04S
PLATTEVILLE    CLEAR     59  55  88 N3        30.05S
$$

WIZ056-057-062-063-064-067-068-050600-
SOUTH CENTRAL WISCONSIN

CITY           SKY/WX    TMP DP  RH WIND       PRES   REMARKS
REEDSBURG      CLEAR     59  56  90 CALM      30.04S
BARABOO/DELLS  CLEAR     59  53  79 CALM      30.04S
LONE ROCK      CLEAR     58  55  90 CALM      30.05R
MINERAL POINT  CLEAR     64  54  68 CALM      30.06S
MADISON        CLEAR     63  54  72 CALM      30.03S
MIDDLETON      CLEAR     58  53  85 CALM      30.05R
WATERTOWN      CLEAR     60  60 100 NE3       30.03S
MONROE         CLEAR     68  52  56 W9        30.05S
JANESVILLE     CLEAR     61  57  88 CALM      30.04R
$$

WIZ051-052-058>065-066-070>072-050600-
SOUTHEAST WISCONSIN

CITY           SKY/WX    TMP DP  RH WIND       PRES   REMARKS
MILWAUKEE      PTCLDY    66  55  67 CALM      30.03R
WAUKESHA       CLEAR     59  52  77 CALM      30.05R
MILWAUKEE/TIMM PTCLDY    63  52  67 CALM      30.04R
RACINE         CLEAR     64  56  75 SW6       30.05R
BURLINGTON     CLEAR     55  53  93 CALM      30.04R
KENOSHA        CLEAR     61  56  83 CALM      30.04R
FOND DU LAC    CLEAR     58  56  93 S3        30.03R
SHEBOYGAN      CLEAR     57  55  93 SW3       30.03R
WEST BEND      CLEAR     59  54  82 CALM      30.04R
JUNEAU         MOCLDY    61  56  83 CALM      30.05S
$$

LSZ147-162-050600-
LAKE SUPERIOR

STATION/POSITION TIME  TEMP    WIND        PRES    WAVE
                       AIR SEA DIR/SP/G            HT/PER
                 (UTC) (F)     (DEG/KT/KT) (MB)    (FT/S)
W MID LAKE BUOY  0450   58 58  240/  6/  8 1017.9R   0
DEVILS ISLAND    0500   62     210/  5/  5 1018.4R
PORT WING        0400   58     130/  3/  6 1018.3
SAXON HARBOR     0440   54     190/  6/  7 1017.6R
$$

LMZ867-665-643>646-050600-
LAKE MICHIGAN

STATION/POSITION TIME  TEMP    WIND        PRES    WAVE
                       AIR SEA DIR/SP/G            HT/PER
                 (UTC) (F)     (DEG/KT/KT) (MB)    (FT/S)
CHAMBERS ISLAND  0400   65      50/  6/  7 1016.9R
N MID LAKE BUOY  0450   62 68  330/  8/ 10 1017.2R   2/ 4
NORTHPORT PIER   0440   62      30/  6/  8 1017.6R
SISTER BAY       0418   60      CALM  /  3   N/A
ALGOMA LAKESHORE 0412           50/  4/  5   N/A
KEWAUNEE LAKESHO 0400   62      40/  4/  5 1016.2R
SHEBOYGAN LAKESH 0500   68     270/  5/  6 1016.8R
PORT WASHINGTON  0400   69     290/  2/  4 1016.9R
ATWATER BUOY     0500   65 64  290/  2/  2 1018.3R
MILWAUKEE LAKESH 0400   68     210/  2/  4   N/A
KENOSHA   LAKESH 0500   69     230/  6/ 10 1016.6R
$$

TC  - TEMPERATURE IN CELSIUS
VSB - VISIBILITY IN STATUTE MILES
WCI - WIND CHILL INDEX
HX  - HEAT INDEX




USA.gov is the U.S. government's official web portal to all federal, state and local government web resources and services.